Location: Champs
(48.8539°N, 2.6040°E)
Time: 22:49:54
(UTC+00:00)

Cosmos 1953 - Pass Details

Date: 02 June 2022
Orbit: 533 x 555 km, 82.5° (Epoch: 01 July)

Event Time Altitude Azimuth Distance (km) Brightness Sun altitude
Rises 22:55:40 0° 355° (N) 2,720 7.5 -17.9°
Reaches altitude 10° 22:57:55 10° 2° (N) 1,818 6.1 -18.0°
Maximum altitude 23:01:46 45° 76° (ENE) 747 2.9 -18.1°
Enters shadow 23:03:00 33° 123° (ESE) 918 3.1 -18.2°
